When you browse on this site, cookies collect data to enhance your experience and personalize the content and advertising you see.
Visit our Privacy Policy to learn more. By continuing to use the site, you agree to this use of cookies and data.
  • In Netherlands
  • List of Countries
  • For 7 days
  • Water Temperature
  • Weather Map
  • Weather Widgets
  • user-avatar
    Login

    Hourly Weather Stara Zagora

    Today, 19 September, Thursday

    Time Temperature Precipitation Wind Pressure Humidity
    00:00 +20°C° 0 mm 2 mps 744 mmHg 34%
    01:00 +19°C° 0 mm 2 mps 744 mmHg 36%
    02:00 +20°C° 0 mm 1 mps 744 mmHg 37%
    03:00 +19°C° 0 mm 1 mps 744 mmHg 41%
    04:00 +18°C° 0 mm 1 mps 744 mmHg 44%
    05:00 +16°C° 0 mm 2 mps 744 mmHg 48%
    06:00 +17°C° 0 mm 2 mps 745 mmHg 48%
    07:00 +18°C° 0 mm 2 mps 745 mmHg 49%
    08:00 +19°C° 0 mm 2 mps 745 mmHg 52%
    09:00 +19°C° 0 mm 2 mps 745 mmHg 54%
    10:00 +20°C° 0 mm 2 mps 745 mmHg 55%
    11:00 +20°C° 0 mm 2 mps 745 mmHg 57%
    12:00 +20°C° 0.3 mm 2 mps 745 mmHg 60%
    13:00 +19°C° 0.3 mm 2 mps 745 mmHg 63%
    14:00 +18°C° 0.3 mm 2 mps 744 mmHg 66%
    15:00 +18°C° 0.2 mm 2 mps 744 mmHg 65%
    16:00 +18°C° 0.2 mm 2 mps 744 mmHg 64%
    17:00 +18°C° 0.2 mm 2 mps 744 mmHg 63%
    18:00 +17°C° 0 mm 2 mps 744 mmHg 65%
    19:00 +17°C° 0 mm 2 mps 744 mmHg 67%
    20:00 +16°C° 0 mm 2 mps 745 mmHg 69%
    21:00 +16°C° 0.1 mm 2 mps 745 mmHg 70%
    22:00 +15°C° 0.1 mm 2 mps 745 mmHg 72%
    23:00 +15°C° 0.1 mm 2 mps 745 mmHg 73%

    Tomorrow, 20 September, Friday

    Time Temperature Precipitation Wind Pressure Humidity
    00:00 +14°C° 0.3 mm 2 mps 745 mmHg 75%
    01:00 +14°C° 0.3 mm 2 mps 744 mmHg 76%
    02:00 +13°C° 0.3 mm 2 mps 744 mmHg 78%
    03:00 +13°C° 0.6 mm 2 mps 744 mmHg 79%
    04:00 +13°C° 0.6 mm 2 mps 744 mmHg 80%
    05:00 +12°C° 0.6 mm 1 mps 744 mmHg 81%
    06:00 +13°C° 0.2 mm 2 mps 744 mmHg 79%
    07:00 +13°C° 0.2 mm 2 mps 745 mmHg 78%
    08:00 +13°C° 0.2 mm 2 mps 745 mmHg 76%
    09:00 +14°C° 0 mm 2 mps 745 mmHg 65%
    10:00 +16°C° 0 mm 2 mps 745 mmHg 54%
    11:00 +18°C° 0 mm 3 mps 746 mmHg 43%
    12:00 +19°C° 0 mm 3 mps 745 mmHg 38%
    13:00 +20°C° 0 mm 4 mps 745 mmHg 32%
    14:00 +21°C° 0 mm 5 mps 745 mmHg 27%
    15:00 +21°C° 0 mm 5 mps 745 mmHg 28%
    16:00 +20°C° 0 mm 5 mps 745 mmHg 29%
    17:00 +20°C° 0 mm 5 mps 745 mmHg 30%
    18:00 +18°C° 0 mm 4 mps 745 mmHg 35%
    19:00 +16°C° 0 mm 3 mps 746 mmHg 39%
    20:00 +14°C° 0 mm 2 mps 746 mmHg 44%
    21:00 +14°C° 0 mm 2 mps 746 mmHg 45%
    22:00 +13°C° 0 mm 1 mps 747 mmHg 46%
    23:00 +12°C° 0 mm 1 mps 747 mmHg 47%

    Day after tomorrow, 21 September, Saturday

    Time Temperature Precipitation Wind Pressure Humidity
    00:00 +12°C° 0 mm 1 mps 747 mmHg 48%
    01:00 +12°C° 0 mm 1 mps 747 mmHg 49%
    02:00 +11°C° 0 mm 1 mps 747 mmHg 49%
    03:00 +11°C° 0 mm 1 mps 748 mmHg 50%
    04:00 +11°C° 0 mm 1 mps 748 mmHg 51%
    05:00 +10°C° 0 mm 1 mps 748 mmHg 51%
    06:00 +12°C° 0 mm 1 mps 748 mmHg 48%
    07:00 +13°C° 0 mm 1 mps 748 mmHg 44%
    08:00 +15°C° 0 mm 1 mps 749 mmHg 40%
    09:00 +16°C° 0 mm 1 mps 749 mmHg 36%
    10:00 +19°C° 0 mm 1 mps 749 mmHg 32%
    11:00 +20°C° 0 mm 2 mps 749 mmHg 29%
    12:00 +21°C° 0 mm 2 mps 749 mmHg 27%
    13:00 +22°C° 0 mm 1 mps 748 mmHg 25%
    14:00 +23°C° 0 mm 1 mps 748 mmHg 24%
    15:00 +23°C° 0 mm 1 mps 748 mmHg 24%
    16:00 +23°C° 0 mm 1 mps 747 mmHg 25%
    17:00 +21°C° 0 mm 2 mps 747 mmHg 25%
    18:00 +20°C° 0 mm 1 mps 747 mmHg 29%
    19:00 +18°C° 0 mm 1 mps 747 mmHg 33%
    20:00 +15°C° 0 mm 1 mps 748 mmHg 36%
    21:00 +14°C° 0 mm 1 mps 748 mmHg 43%
    22:00 +13°C° 0 mm 2 mps 748 mmHg 50%
    23:00 +12°C° 0 mm 2 mps 748 mmHg 57%

    22 September, Sunday

    Time Temperature Precipitation Wind Pressure Humidity
    00:00 +12°C° 0 mm 2 mps 748 mmHg 60%
    01:00 +10°C° 0 mm 2 mps 747 mmHg 63%
    02:00 +11°C° 0 mm 1 mps 747 mmHg 66%
    03:00 +11°C° 0 mm 1 mps 747 mmHg 68%
    04:00 +10°C° 0 mm 1 mps 747 mmHg 69%
    05:00 +10°C° 0 mm 1 mps 747 mmHg 70%
    06:00 +11°C° 0 mm 1 mps 747 mmHg 64%
    07:00 +12°C° 0 mm 0 mps 747 mmHg 59%
    08:00 +13°C° 0 mm 0 mps 747 mmHg 54%
    09:00 +16°C° 0 mm 1 mps 747 mmHg 47%
    10:00 +19°C° 0 mm 1 mps 747 mmHg 41%
    11:00 +21°C° 0 mm 1 mps 747 mmHg 35%
    12:00 +23°C° 0 mm 1 mps 746 mmHg 32%
    13:00 +24°C° 0 mm 1 mps 746 mmHg 29%
    14:00 +25°C° 0 mm 1 mps 745 mmHg 26%
    15:00 +25°C° 0 mm 1 mps 745 mmHg 26%
    16:00 +24°C° 0 mm 1 mps 744 mmHg 27%
    17:00 +24°C° 0 mm 1 mps 744 mmHg 28%
    18:00 +22°C° 0 mm 1 mps 744 mmHg 31%
    19:00 +20°C° 0 mm 1 mps 744 mmHg 35%
    20:00 +18°C° 0 mm 1 mps 745 mmHg 39%
    21:00 +16°C° 0 mm 1 mps 745 mmHg 46%
    22:00 +15°C° 0 mm 1 mps 745 mmHg 52%
    23:00 +14°C° 0 mm 2 mps 745 mmHg 58%

    23 September, Monday

    Time Temperature Precipitation Wind Pressure Humidity
    00:00 +13°C° 0 mm 1 mps 745 mmHg 61%
    01:00 +13°C° 0 mm 1 mps 745 mmHg 64%
    02:00 +12°C° 0 mm 1 mps 745 mmHg 67%
    03:00 +12°C° 0 mm 1 mps 745 mmHg 68%
    04:00 +12°C° 0 mm 1 mps 745 mmHg 70%
    05:00 +11°C° 0 mm 0 mps 745 mmHg 71%
    06:00 +12°C° 0 mm 0 mps 745 mmHg 66%
    07:00 +13°C° 0 mm 0 mps 745 mmHg 60%
    08:00 +15°C° 0 mm 0 mps 745 mmHg 55%
    09:00 +19°C° 0 mm 1 mps 744 mmHg 48%
    10:00 +20°C° 0 mm 2 mps 744 mmHg 41%
    11:00 +23°C° 0 mm 2 mps 744 mmHg 34%
    12:00 +24°C° 0 mm 2 mps 743 mmHg 31%
    13:00 +25°C° 0 mm 2 mps 743 mmHg 28%
    14:00 +27°C° 0 mm 3 mps 742 mmHg 25%
    15:00 +26°C° 0 mm 3 mps 742 mmHg 25%
    16:00 +26°C° 0 mm 3 mps 741 mmHg 25%
    17:00 +26°C° 0 mm 3 mps 741 mmHg 26%
    18:00 +24°C° 0 mm 3 mps 741 mmHg 32%
    19:00 +21°C° 0 mm 3 mps 741 mmHg 39%
    20:00 +19°C° 0 mm 3 mps 741 mmHg 46%
    21:00 +18°C° 0 mm 3 mps 741 mmHg 54%
    22:00 +17°C° 0 mm 3 mps 741 mmHg 63%
    23:00 +17°C° 0 mm 3 mps 741 mmHg 72%

    24 September, Tuesday

    Time Temperature Precipitation Wind Pressure Humidity
    00:00 +16°C° 0 mm 3 mps 741 mmHg 73%
    01:00 +16°C° 0 mm 2 mps 740 mmHg 75%
    02:00 +16°C° 0 mm 2 mps 740 mmHg 76%
    03:00 +16°C° 0 mm 2 mps 740 mmHg 78%
    04:00 +16°C° 0 mm 2 mps 739 mmHg 79%
    05:00 +15°C° 0 mm 1 mps 739 mmHg 81%
    06:00 +16°C° 0 mm 1 mps 739 mmHg 78%
    07:00 +18°C° 0 mm 1 mps 738 mmHg 75%
    08:00 +18°C° 0 mm 1 mps 738 mmHg 72%
    09:00 +20°C° 0 mm 1 mps 738 mmHg 65%
    10:00 +22°C° 0 mm 1 mps 738 mmHg 58%
    11:00 +23°C° 0 mm 1 mps 738 mmHg 51%
    12:00 +24°C° 0.1 mm 1 mps 738 mmHg 49%
    13:00 +25°C° 0.1 mm 1 mps 737 mmHg 47%
    14:00 +26°C° 0.1 mm 1 mps 737 mmHg 45%
    15:00 +25°C° 0 mm 1 mps 736 mmHg 47%
    16:00 +25°C° 0 mm 1 mps 736 mmHg 48%
    17:00 +25°C° 0 mm 1 mps 736 mmHg 50%
    18:00 +23°C° 0 mm 2 mps 736 mmHg 56%
    19:00 +20°C° 0 mm 2 mps 736 mmHg 62%
    20:00 +18°C° 0 mm 2 mps 736 mmHg 68%
    21:00 +18°C° 0 mm 2 mps 736 mmHg 70%
    22:00 +18°C° 0 mm 2 mps 736 mmHg 71%
    23:00 +17°C° 0 mm 2 mps 737 mmHg 73%
    Show more